C/2008 Q3 (Garradd)
Epoch 2009 June 18.0 TT = JDT 2455000.5  
T 2009 June 23.09270 TT                                 Nakano
q   1.7982075            (2000.0)            P               Q
z  +0.0001879      Peri.  340.85532     -0.56424446     -0.71954548
 +/-0.0000014      Node   219.73436     -0.65050428     +0.08551759
e   0.9996621      Incl.  140.70596     -0.50840178     +0.68915966
From 630 observations 2008 Aug. 27-2010 Mar. 19, mean residual 0".65.
   Nongravitational parameters A1 = +4.23 +/- 0.07, A2 = +1.9127 +/- 0.1031.
   (1/a)org.= +0.000304, (1/a)fut.= +0.000699 (+/-0.000001), Q= 8.
Residuals in seconds of arc 
2008/                     090605 834  0.0   0.6-    090806 D90  0.1+  0.6+  
080827 E12  1.4+  0.4+    090606 834  0.2-  0.1+    090806 D90  0.2-  0.3+  
080827 E12  0.7+  0.2-    090606 834  0.7+  0.3-    090807 D90  0.1-  0.6+  
080827 E12  0.4+  0.8-    090606 834  0.5+  0.4-    090807 D90  0.3-  0.6+  
080827 E12  0.3-  1.9-    090606 834  0.3+  0.3-    090808 J24 (0.2-  2.2+) 
080827 E12  0.3+  0.5-    090607 I19  0.2-  0.1-    090808 J24  0.2+  0.9+  
080828 474  0.2+  0.9-    090607 I19  0.3-  0.0     090808 J24  1.9+  1.2+  
080828 474  0.4+  1.3-    090607 I19  0.4-  0.1+    090813 372  0.5+  1.5+  
080828 474  0.4+  1.2-    090610 808  1.1-  0.9+    090813 372  0.2-  1.1+  
080828 474  0.3+  1.1-    090610 808  0.3-  0.1+    090813 372  0.4+  0.7+  
080828 474  0.5+  1.1-    090610 808  1.2-  0.9+    090813 372  0.6+  0.8+  
080828 E16  0.0   0.9-    090611 808  1.2-  0.8+    090813 372  0.6+  0.9+  
080828 E16  0.5+  0.5-    090611 808  1.3-  1.0+    090814 D90  1.6+  0.1+  
080828 E16  0.5+  0.6-    090611 808  1.1-  0.9+    090814 D90  0.5+  0.6+  
080828 E16  0.2-  0.8-    090611 900  0.6-  1.1+    090814 900  0.3-  0.0   
080828 E16  0.3+  1.0-    090611 900  1.9+  1.2-    090814 900  0.7+  0.2-  
080828 E12  0.4+  0.6-    090611 372  0.5-  0.1+    090815 349  0.8+  0.2+  
080828 474  0.2+  1.3-    090611 372  0.0   0.1-    090815 349  0.7+  0.1-  
080828 E12  0.1+  0.7-    090611 D88  0.7+  0.8-    090817 900  0.8+  0.0   
080828 474  0.4+  1.2-    090611 415  0.3-  0.2-    090817 900  0.1+  0.6-  
080828 474  0.5+  1.2-    090611 415  0.2-  0.1-    090817 372  0.7+  0.9+  
080828 474  0.6+  0.9-    090611 D88  0.5+  0.5-    090818 D90  0.1-  1.0+  
080828 474  0.6+  1.0-    090611 D88  0.9+  1.0-    090818 D90  0.2+  0.7+  
080828 E12  0.6+  1.0-    090611 367  1.2+  0.6-    090823 349  1.1+  0.2-  
080911 E12  0.4+  1.0-    090611 367  0.7+  0.9-    090823 349  1.3+  0.1-  
080911 E12  0.3+  0.4-    090611 367  1.0+  0.6-    090823 900  0.6+  0.3-  
080917 415 (0.9+  2.0-)   090611 367  0.8+  0.7-    090823 900  0.7+  0.2+  
080917 415 (2.7+  0.1-)   090611 D25  0.3+  0.3-    090824 372  0.6+  0.4+  
080921 415  1.5+  0.0     090611 D25  0.3+  0.3-    090824 372  0.9+  0.9+  
080921 415  0.5+  0.4-    090611 D25  0.4+  0.4-    090901 900  1.1+  1.8-  
080922 E85 (0.1+  2.8-)   090612 808  0.8-  0.9+    090901 900  1.3-  1.3+  
080922 E85  0.7+  1.5-    090612 808  1.0-  1.0+    090906 349  0.0   0.6-  
080922 E85  1.5+  0.4-    090612 834  0.2+  0.1+    090906 349  0.8+  1.4-  
080924 415  0.8+  0.5-    090612 834  0.1+  0.1-    091107 349  1.3-  0.9+  
080924 415  0.6+  0.2+    090612 834  0.1+  0.1+    091107 349  1.1-  0.8+  
080926 423  1.5+  1.1-    090612 I19  0.2-  0.0     091107 349  0.8-  0.4+  
080926 423  1.5+  0.6-    090612 I19  0.2+  0.5-    091108 349  0.7-  0.7+  
080927 423  1.0+  0.2+    090612 I19  0.2+  0.0     091108 349  0.5-  0.1+  
080927 423  0.9+  0.8-    090612 A77  0.4+  0.3+    091117 H06  0.5-  0.2-  
080930 E12 (2.3+  0.4+)   090612 A77 (5.4+  3.9+)   091117 H06  0.1-  0.6-  
080930 E12  1.2+  1.1+    090612 B74  1.3-  1.3+    091121 H06  0.1-  0.1-  
080930 E12 (3.6+  1.5+)   090612 B74  0.7-  1.4+    091121 H06  0.1-  0.0   
080930 E12  1.3+  0.7-    090612 B74  0.2+  1.5+    091121 367  0.4-  0.0   
081001 423 (2.4+  0.4-)   090612 J24  0.3-  0.8+    091121 367  0.2-  0.0   
081007 423  1.1+  1.7+    090612 J24  0.7-  1.1+    091122 215  0.1-  0.5-  
081008 423  1.1+  0.5-    090612 J24  0.5-  1.0+    091122 215  0.2-  0.6-  
081008 423 (2.4+  0.6+)   090613 808  0.7-  0.1-    091122 215  0.4-  0.8-  
081017 I32  1.3+  0.5+    090613 808  0.6-  0.2+    091125 J47  0.6+  0.2+  
081030 E12  1.5+  0.9-    090613 808  0.6-  0.1+    091126 349  0.1+  0.5-  
081129 D90 (5.3+  2.0-)   090613 834  0.1+  0.0     091126 349  0.2+  0.6-  
081129 D90  0.4-  0.7-    090613 834  0.0   0.1-    091126 349  0.1-  0.8-  
081130 415  1.5+  1.5-    090613 834  0.1+  0.0     091128 H10  0.4+  1.5-  
081130 415  1.7+  1.3-    090613 I20  0.2+  0.2-    091128 H10  0.3-  0.8-  
2009/                     090613 I20  0.3+  0.2-    091205 939  0.2-  0.2-  
090329 467  0.2+  1.0-    090613 I20  0.0   0.0     091205 939  0.1-  0.2+  
090329 467  0.1-  1.0-    090614 900  0.3+  0.0     091205 939  0.1+  1.0+  
090329 467  0.0   1.2-    090614 900  0.6+  0.0     091205 H06  0.7-  0.1-  
090402 467  0.2+  0.8-    090614 I32  0.1-  0.1-    091205 H06  0.6-  0.3-  
090402 467  0.1+  1.0-    090614 I32  0.2-  0.1-    091208 J47  1.1+  1.0-  
090402 467  0.2+  0.9-    090614 I32  0.4-  0.0     091208 J47  0.0   1.1-  
090405 E16  0.4+  0.6-    090615 E16  0.3-  0.1+    091208 J47  0.3+  0.6-  
090405 E16  0.2+  0.7-    090615 E16  0.4-  0.5+    091208 J47  0.0   0.2-  
090405 E16  0.5+  0.6-    090615 E16  0.2-  0.3+    091208 J47  0.7-  1.5+  
090421 415  1.2-  0.8-    090616 E16  0.3-  0.0     091212 H10  0.7-  0.0   
090421 415  0.7-  1.0-    090616 E16  0.4-  0.1-    091212 H10  0.9-  0.3-  
090421 E12  0.0   0.8-    090616 372  0.3+  1.0-    091212 H10  1.1-  1.5-  
090423 194  0.9-  1.3-    090616 372  0.5+  1.3-    091213 H10  0.4+  0.4-  
090423 194  0.5-  1.1-    090616 J51  0.6+  0.0     091213 H10  0.7-  1.4-  
090423 194  0.8-  1.0-    090616 J51  0.0   0.1+    091213 H06  0.3-  0.5-  
090426 194  0.8-  1.3-    090616 J51  0.3+  0.2+    091213 H10  0.9-  0.5-  
090426 194 (2.2-  1.6-)   090616 J47  0.1-  0.3+    091213 H06  0.2-  0.4-  
090426 194  0.0   0.3+    090616 J47  0.2+  0.5+    091214 349  0.7-  0.9+  
090427 194  0.9-  1.0-    090616 J47  0.1-  0.1+    091214 349  0.4-  0.7+  
090427 194  1.0-  1.0-    090617 E20  1.1+  0.3-    091216 204  0.2+  0.1+  
090427 194  0.6-  0.8-    090617 D90  0.6-  0.8+    091216 204  0.1+  0.4-  
090428 194  1.1-  0.7-    090617 D90  0.2-  0.4+    091216 900  0.3-  0.9-  
090428 194  0.6-  0.4-    090617 372  0.4+  1.4-    091216 900  0.3-  0.9-  
090501 834  0.1-  0.7-    090617 D90  0.6-  0.7+    091218 204  0.3-  0.7-  
090501 834  0.2-  0.5-    090617 213  0.0   0.3-    091218 204  0.3-  0.2-  
090501 834  0.2-  0.5-    090617 213  0.1-  0.2-    091219 H45  0.2-  0.5-  
090503 834  0.2+  0.3-    090617 213  0.4+  0.4-    091219 H45  0.3-  0.7-  
090503 834  0.2+  0.3-    090617 J08  1.1-  0.4+    091219 H45  0.2-  0.5-  
090503 834  0.1+  0.3-    090617 J47  0.3+  0.0     091219 H45  0.0   0.2-  
090505 E12  0.1+  0.6-    090617 J47  0.2+  0.0     091219 H45  0.1+  0.6-  
090505 E12  0.1+  0.5-    090617 J47  0.9+  0.1-    091219 H45  0.1-  0.7-  
090505 E12  0.2+  0.4-    090618 834  0.1-  0.0     091219 H45  0.1-  0.7-  
090509 834  0.1-  0.4-    090618 834  0.3+  0.1+    091220 939  0.1-  1.5-  
090509 834  0.4-  0.1-    090618 J08  0.7+  0.3+    091220 939  0.7-  1.0-  
090509 834  0.2-  0.7-    090618 J47  0.1+  0.2-    091220 939  0.7-  0.7-  
090509 D90  0.3+  0.5-    090618 J47  0.0   0.2-    091221 H47  0.8+  0.9-  
090509 D90  0.2+  0.1+    090618 J47  0.2+  0.0     091221 H47  0.3+  0.1+  
090509 D90  0.3-  0.3-    090618 J45 (1.4+  3.2-)   091222 352  1.0-  0.8-  
090510 844  0.2-  0.0     090618 J45 (1.2+  3.0-)   091222 352  0.0   0.5-  
090510 844  0.3+  1.0+    090619 H53  0.4+  0.5-    091228 H47  1.0-  0.1-  
090510 844  0.4-  0.0     090619 H53  0.2-  0.3+    091228 H47  0.1-  1.4-  
090510 844  0.6-  0.0     090619 H53  0.5-  0.1+    091228 H47  0.5-  0.0   
090510 844  0.8-  0.1-    090619 H53  0.1+  0.8+    091231 349  0.2+  0.3-  
090514 467  1.6-  0.8-    090619 H53  1.4-  1.7-    091231 349  0.0   0.6-  
090514 467  0.0   0.6-    090619 H53 (2.2+  1.7+)   091231 349  0.2+  0.2-  
090514 467  1.0+  0.4-    090619 212  0.7+  0.3+    2010/                   
090514 467  0.4+  0.5-    090619 212  0.2+  0.7+    100102 939  0.5+  1.1-  
090514 467  0.3+  0.5-    090619 212  0.4-  0.1-    100102 939  0.6-  1.2-  
090514 467  0.5+  0.4-    090619 J24 (0.1-  2.6+)   100102 939  1.4-  1.1-  
090514 E12  0.3+  0.1-    090619 J24 (0.6-  2.4+)   100106 704 (2.1+  0.2+) 
090514 E12  0.2+  0.4-    090619 J24 (1.1-  2.8+)   100106 704  0.2-  0.9-  
090515 I32  0.4-  0.2+    090620 212  0.3+  0.6+    100106 704  1.2-  1.4+  
090515 I32  0.7-  0.6-    090620 212  0.2+  0.7+    100109 H06  0.0   0.8-  
090515 I32  0.6+  0.8-    090620 212  0.6+  0.6+    100109 H06  0.0   1.0-  
090515 I19  0.2-  0.4-    090621 945  1.6+  1.8+    100109 H06  0.1+  0.8-  
090515 I19  0.4-  0.3+    090621 945  1.8+  0.9+    100110 D95  1.2-  0.2+  
090515 I19  0.1-  0.1-    090621 945  0.4+  1.8-    100110 D95  0.6-  1.9-  
090515 I19  0.2-  0.2+    090621 945 (1.3+  6.0+)   100115 H47  0.3+  1.0-  
090515 I19  0.0   0.1-    090621 945 (3.7+  0.7-)   100115 H47  0.6-  1.9+  
090515 I19  0.2-  0.2+    090622 H10  0.1-  0.5+    100115 H47  0.3-  0.7-  
090515 I19  0.1-  0.2+    090622 H10  0.3-  0.1+    100115 349  0.5+  0.9-  
090515 I19  0.1-  0.1+    090622 H10  1.0+  0.4-    100115 349  0.4+  0.8-  
090515 I19  0.5-  0.1+    090622 213  1.0+  1.2-    100115 349  0.2+  0.6-  
090515 I19  0.2-  0.0     090622 213  0.1-  0.1+    100116 235  0.3-  0.9-  
090515 I19  0.5-  0.2+    090622 213  0.5-  1.1+    100116 204  0.3+  0.7-  
090515 I19  1.2-  0.5-    090622 B74  0.4+  0.8+    100116 204  0.4+  0.8-  
090516 834  0.2-  0.6-    090622 B74  0.2+  1.5+    100130 H06  0.4-  0.3-  
090516 834  0.2-  0.2-    090622 B74  0.3+  0.6+    100130 H06  0.1-  0.2-  
090516 834  0.1+  0.3-    090622 J47  0.3+  0.1+    100130 H06  0.1+  0.0   
090516 E94  0.1+  0.4-    090622 J51  0.0   0.3+    100131 212  0.0   0.7-  
090516 415  0.1+  0.8+    090622 J51  0.1-  0.3+    100202 H06  0.6+  0.8-  
090516 467  0.3+  0.5-    090622 J51  0.3+  0.3+    100202 H06  0.4+  1.1-  
090516 415  0.2+  0.4+    090622 J47  0.0   0.4+    100202 H06  0.0   1.2-  
090516 467  0.3+  0.5-    090622 J47  0.1+  0.1+    100215 H45  0.4-  0.3-  
090516 467  0.5+  0.5-    090623 D92  0.2+  0.2-    100215 H45  0.2-  0.0   
090516 E94  0.2+  0.4-    090623 D92  0.7+  0.8+    100215 H45  0.3-  0.3-  
090516 423  0.2-  0.1+    090623 J51  0.3-  0.1-    100215 H45  0.1+  0.2-  
090516 423  0.3-  0.6+    090623 J51  0.2-  0.1-    100215 H45  0.5-  0.0   
090516 E94  0.2+  0.2-    090623 J51  0.1+  0.3+    100215 H45  0.3-  0.2-  
090517 423  0.1-  0.3+    090623 I21  0.4+  0.3+    100216 H06  0.4+  0.2-  
090517 423  0.7+  0.0     090624 I21  0.9+  0.5-    100216 H06  0.4+  0.2-  
090517 D25  0.1+  1.2-    090624 I21  1.2+  0.9+    100216 H06  0.3+  0.5-  
090519 I32  0.3-  0.1+    090624 J47  0.3+  0.1+    100216 H45  0.2-  0.4-  
090519 I32  0.7+  0.7-    090624 J47  0.1+  0.3+    100216 H45  0.3+  0.7-  
090519 I32  0.3+  0.2-    090624 J51  0.0   0.5+    100216 H45  0.1+  0.4-  
090519 834  0.7+  0.2-    090624 J47  0.1+  0.4+    100216 H45  0.1+  0.8-  
090519 834  0.5+  0.0     090624 J51  0.2+  0.5+    100216 H45  0.7+  0.7-  
090519 834  0.3+  0.5-    090624 J51  0.0   0.5+    100216 H45  0.3+  0.4-  
090520 I31  0.1+  0.9+    090625 D93 (2.0+  2.3+)   100218 H45  0.8-  1.5-  
090520 I31  0.1-  0.6+    090625 D93  0.1-  0.7+    100218 H45  0.2-  0.2-  
090520 I31  0.3-  0.5+    090625 D93  0.6-  0.7+    100218 H45  0.3+  0.2-  
090520 I31  0.3+  0.2+    090625 D93  0.7+  0.3-    100218 H45  0.2+  0.4-  
090521 I31  0.1-  0.5-    090626 D93  1.1+  0.5+    100218 H45  0.6+  0.2-  
090521 I31  0.3-  0.5-    090626 367  0.1-  0.3+    100218 H45  0.5+  0.6-  
090521 I31  0.5+  0.5+    090626 D93  0.0   0.4+    100218 349  0.1+  0.1+  
090521 I31  0.9-  1.0+    090626 367  0.1-  0.4+    100218 349  0.2-  0.2+  
090521 I31  0.1-  1.0+    090626 367  0.0   0.7+    100220 J01  0.0   0.2-  
090522 I32  0.0   0.6-    090626 D93  1.0+  1.6+    100220 J01  0.2-  0.5-  
090522 I32  0.4+  1.1-    090626 900  0.3+  0.0     100220 J01  0.5-  0.1-  
090522 I32  0.1-  0.7-    090626 900  0.2+  0.0     100220 J52  0.3-  0.3-  
090522 I19  0.0   0.2-    090626 J47  0.2+  0.2+    100220 J52  0.5+  0.2-  
090522 I19  0.1-  0.2-    090626 J47  0.1+  0.3+    100220 J52  0.4+  0.7-  
090522 I19  0.1+  0.0     090626 J47  0.3+  0.3+    100221 900  0.2-  0.1+  
090523 I19  0.2+  0.1+    090627 I19  0.3+  0.2+    100221 900  0.2-  0.1+  
090523 I19  0.1-  0.4-    090627 I19  0.7+  0.3+    100223 D93  0.5-  0.4-  
090523 I19  0.2+  0.5-    090627 I19  0.0   0.3+    100223 D93  0.2-  0.1+  
090523 808  1.1-  0.9+    090627 J53  0.3-  1.0+    100225 H45  0.0   0.0   
090523 808  0.0   0.5-    090627 J53  0.3-  1.0+    100225 H45  0.2-  0.1+  
090524 I19  0.2+  0.4-    090627 J53  0.2-  1.0+    100225 H45  0.5-  0.4+  
090524 I19  0.1+  0.3-    090627 J47  0.2-  0.7+    100225 H45  0.4-  0.2+  
090524 I19  0.1+  0.4-    090627 J47  0.2+  0.2+    100225 H45  0.3-  0.1+  
090524 844  0.1+  0.8-    090627 J47  0.1+  0.2+    100225 H45  0.4-  0.1-  
090524 I21  0.0   0.1+    090628 I20  0.1-  0.2+    100228 J47  1.3-  0.3+  
090524 I21  0.3+  0.2-    090628 I20  0.1-  0.2+    100228 J47  1.1-  0.4+  
090524 844  0.7+  1.1-    090628 I20  0.2+  0.1-    100228 J47  1.3-  0.5+  
090524 I21  1.1+  0.9-    090628 I21  0.7-  0.1-    100228 J47  1.7-  0.9+  
090524 844  0.8-  0.3-    090628 I21  1.1-  1.4+    100302 J38  0.1+  0.6+  
090525 I32  0.1+  0.6-    090628 I21  0.0   0.1-    100302 J38  0.3-  0.7-  
090525 I32  0.1-  0.3-    090628 J47 (2.8+  2.0-)   100302 J38  0.1+  1.1-  
090525 I32  0.4-  0.4-    090628 J47  1.3+  1.3-    100305 204  0.5-  0.2+  
090527 834  0.3+  0.4-    090628 J47  1.0+  0.9-    100305 204  0.4-  0.0   
090527 834  0.3-  0.9-    090701 D25  1.3+  1.9-    100305 B82  0.6-  0.5+  
090527 834  0.3+  0.4-    090701 D25  0.7+  1.8-    100305 B82  0.6-  0.4+  
090528 I32  0.4+  0.7-    090701 D25 (0.5+  2.0-)   100305 B82  0.2-  0.2+  
090528 I32  0.4+  0.1-    090705 349  0.4+  0.1-    100305 235  0.3-  0.2+  
090528 I32  0.1+  0.2-    090705 349  0.5+  0.2-    100308 H45  0.9-  0.1-  
090528 834  0.5-  0.4-    090705 349  0.7+  0.2+    100308 H45  1.7-  0.0   
090528 834  0.2+  1.2-    090707 808  0.0   1.1+    100308 H45  0.7-  0.7-  
090528 834  0.2-  0.9-    090707 808  0.3-  0.3+    100308 H45  0.7-  0.3+  
090530 467  0.3-  0.4-    090707 808  0.3-  0.7+    100308 H45  0.6-  0.2-  
090530 467  0.2-  0.5-    090708 I21  0.1-  0.9+    100308 H45  0.4-  0.6-  
090530 467  0.0   0.6-    090708 I21  0.2-  0.7+    100308 D93  1.0-  0.3+  
090531 I19  0.1-  0.0     090708 I21  0.0   0.8-    100308 D93  1.3-  0.2+  
090531 I19  0.3+  0.2-    090710 E12  0.1+  0.2+    100309 H06  0.0   0.2+  
090531 I19  0.2+  0.0     090710 E12  0.2-  0.4+    100309 H06  0.0   0.1+  
090531 I32  0.1-  0.9-    090710 E12  0.3-  0.5+    100309 H06  0.1-  0.3+  
090531 I32  0.5+  0.0     090710 E12  0.3-  0.6+    100310 H45  0.5-  0.5-  
090531 I32  0.1+  1.2-    090710 B74  0.7+  0.6+    100310 H45  0.4-  0.5-  
090601 808  0.9-  0.5+    090710 B74  0.7+  0.9+    100310 H45  0.6-  0.4-  
090601 808  0.2-  0.3-    090710 213  0.6+  0.3+    100310 H45  0.8-  0.0   
090601 808  0.4-  0.1-    090710 213  1.1+  0.3+    100310 H45  0.4-  0.4-  
090601 808  0.4-  0.2-    090710 B74  0.1+  0.8+    100310 H45  0.5-  0.3-  
090601 I21  1.1+  0.3-    090710 213  0.2+  0.5+    100311 D93 (2.1-  0.3+) 
090601 I21  0.6+  0.5-    090711 945 (2.8-  0.2+)   100311 D93  0.8-  0.1+  
090601 I21  0.9+  0.4-    090711 945  1.7-  1.6-    100313 D93  1.7-  1.2+  
090601 I31  0.8+  0.7-    090711 945  0.1-  0.6+    100313 D93  1.3-  0.9+  
090601 I31  0.4+  1.0-    090711 I21  0.6-  0.2+    100314 D93  0.4+  0.3+  
090601 I31  1.4+  1.6-    090712 I21 (2.3+  0.1+)   100314 D93  1.6-  0.0   
090601 I31  1.6+  0.2+    090712 I21  1.7-  0.7+    100316 H45  0.3-  0.1-  
090601 I31 (2.0+  0.5-)   090712 349  0.0   0.0     100316 H45  1.0-  0.1-  
090601 I21  0.7+  0.2+    090712 349  0.3+  0.3+    100316 H45  1.1-  0.2+  
090602 I21  0.2+  0.1+    090714 900  0.4+  0.1+    100316 H45  1.0-  0.1+  
090602 808  0.8-  0.0     090714 900  0.5+  0.1+    100316 H45  0.8-  0.0   
090602 808  0.6-  0.1+    090716 A71  0.6+  0.0     100316 H45  1.1-  0.3+  
090602 808  0.4-  0.1-    090716 A71 (2.4+  1.2+)   100316 400  0.5-  0.8+  
090602 I21  0.5-  0.3-    090718 D90  0.9+  0.1+    100316 400  1.0-  0.1-  
090602 I32  0.1+  0.6-    090718 D90  0.6+  0.2+    100316 400  0.7-  0.4+  
090602 I32  0.7-  0.7-    090723 D25  0.5+  0.2+    100318 703  0.2+  1.8-  
090603 I32  0.5+  0.6-    090723 D25  0.2+  0.5+    100318 703 (1.5+  3.5-) 
090603 I32  0.2+  0.9-    090726 A71 (1.7-  2.0+)   100318 703  0.7+  1.5-  
090603 I32  0.3+  0.4-    090726 A71 (2.5-  0.3+)   100318 703 (0.7+  4.0-) 
090603 I32  0.2-  0.8-    090726 A71 (2.9-  0.6-)   100319 H45  1.3-  0.0   
090603 D25  0.3+  0.7-    090726 A71  0.1-  1.2+    100319 H45  1.1-  0.2-  
090603 D25  0.4+  0.6-    090726 A71  0.2-  1.1+    100319 H45  0.9-  0.3-  
090604 844  0.9+  0.2+    090802 D90  0.3-  0.2+    100319 H45  1.1-  0.5-  
090604 844 (2.3+  1.7-)   090802 D90  0.2-  0.1+    100319 H45  1.0-  0.8-  
090604 844  1.9+  0.4-    090802 D90  0.2-  0.2+    100319 H45  0.8-  0.1+  
090605 834  0.1+  0.6-    090803 900  0.6+  0.4+                            
090605 834  0.2+  0.3-    090803 900  0.1-  0.5+                            

